Regional Weather Roundup
Issued by NWS Pendleton, OR

Home | Current Version | Previous Version | Text Only | Print | Product List | Glossary On
Versions: 1 2 3 4 5 6 7 8 9 10 11 12 13 14 15 16 17 18 19 20 21 22 23 24 25 26 27 28 29 30 31 32 33 34 35 36 37 38 39 40 41 42 43 44 45 46 47 48 49 50
000
ASUS46 KPDT 260425
RWRPDT
PENDLETON REGIONAL WEATHER ROUNDUP
NATIONAL WEATHER SERVICE PENDLETON OREGON
900 PM PDT MON MAY 25 2015

NOTE: FAIR INDICATES FEW OR NO CLOUDS BELOW 12,000 FEET WITH NO
SIGNIFICANT WEATHER AND/OR OBSTRUCTIONS TO VISIBILITY.

# INDICATES UNOFFICIAL STATION AND DATA

WAZ520-260510-
EAST SLOPES OF WASHINGTON CASCADES

CITY            SKY/WX      TMP DP  RH  WIND    PRES   REMARKS
#BULLFROG 2SW   N/A         53  43  69  CALM    27.58R
#BUMPING DAM    N/A         52  N/A N/A SW1     N/A
#CLE ELUM HS    N/A         55  45  69  W7      29.90R
#CLE ELUM LAKE  N/A         52  45  77  CALM    29.88R
#CLIFFDEL 2NW   N/A         55  43  64  NW3     N/A
#GLENWOOD       N/A         57  49  75  S3      29.85R
#NELSON         N/A         56  47  72  CALM    29.91R
#NELSON 3SW     N/A         53  43  69  CALM    30.09R
#NILE           N/A         58  44  60  W2      29.16R
#RONALD 2NW     N/A         55  36  49  E1      29.84R
#SNOWDEN        N/A         50  36  58  CALM    N/A
#TEANAWAY 4NE   N/A         56  48  74  SW3     N/A
#TROUT LAKE 1NE N/A         58  48  69  CALM    29.86R
$$

WAZ521-260510-
SIMCOE HIGHLANDS

CITY            SKY/WX      TMP DP  RH  WIND    PRES   REMARKS
#CENTERVILLE 4W N/A         55  47  74  NW24    29.63R
#CENTERVILLE 1SWN/A         55  46  72  W14     29.83R
#GOLDENDALE     N/A         62  46  56  W7      N/A
#GOLDENDALE 1NE N/A         59  38  45  SW5     N/A
#GOLDENDALE 5WNWN/A         58  48  69  W14     29.83R
#GOODNOE HILLS  N/A         60  49  67  NW10    N/A
#LYLE 6NE       N/A         55  48  77  SW7     29.87R
$$

WAZ026-260510-
KITTITAS VALLEY

CITY            SKY/WX      TMP DP  RH  WIND    PRES   REMARKS
ELLENSBURG AP   CLEAR       60  44  55  NW13    29.90R
YTC-OPS AREA    N/A         55  41  59  W26G37  29.88R
#ELLENSBURG CWU N/A         60  44  55  N7      29.80R
#ELLENSBURG 3NE N/A         58  46  64  N8      29.90R
#ELLENSBURG 1E  N/A         61  40  46  CALM    N/A
#KITTITAS 4N    N/A         57  45  64  N9      28.22R
#KITTITAS 3S    N/A         58  45  62  NW1     29.83R
#THORP 6N       N/A         55  45  69  NW23G35 29.86S
$$

WAZ027-260510-
YAKIMA VALLEY

CITY            SKY/WX      TMP DP  RH  WIND    PRES   REMARKS
SUNNYSIDE AP    CLOUDY      67  43  42  N6      29.86R
YAKIMA AIRPORT  PTCLDY      68  42  39  W8      29.87R
#DONALD 2NE     N/A         66  29  25  N5      28.72R
#GRANDVIEW      N/A         70  43  38  W2      29.85R
#MABTON         N/A         68  50  53  NW10    29.85R
#MOXEE 2E       N/A         62  27  26  W6      29.84
#NACHES 2SW     N/A         63  43  48  NW12    29.85S
#OUTLOOK DOT    N/A         N/A N/A N/A N7      N/A
#SELAH 8E       N/A         61  40  46  NW7     N/A
#TERRACE HTS    N/A         63  45  52  N5      29.79R
#TOPPENISH      N/A         68  45  44  N5      29.74R
#WAPATO 4NE     N/A         66  29  25  N5      28.72R
#WEST VALLEY    N/A         66  43  43  N6      29.80R
#W YAKIMA       N/A         65  43  45  NW2     29.84R
#WHITE SWAN 5E  N/A         66  48  52  N2      29.83R
#WILEY CITY 3W  N/A         64  41  43  CALM    29.84R
$$

WAZ028-260510-
LOWER COLUMBIA BASIN...WASHINGTON

CITY            SKY/WX      TMP DP  RH  WIND    PRES   REMARKS
PASCO           MOCLDY      67  54  63  E7      29.84R
RICHLAND AWOS   MOCLDY      68  57  68  E6      29.83S
#BASIN CITY 5SW N/A         61  57  87  CALM    29.84R
#BENTON CITY    N/A         68  49  51  CALM    29.73R
#CONNELL 5N     N/A         67  49  52  N1      29.81R
#CONNELL 5NW    N/A         64  51  63  N1      29.78R
#ELTOPIA        N/A         65  56  73  CALM    29.79R
#ELTOPIA 6NW    N/A         65  53  65  SW1     28.82S
#KAHLOTUS       N/A         66  47  50  SE5     29.82R
#KENNEWICK      N/A         53  43  69  CALM    27.58R
#KENNEWICK 3S   N/A         68  51  55  CALM    29.82R
#PATERSON       N/A         70  49  47  NE6     29.80R
#PROSSER        N/A         69  43  39  CALM    29.82R
#SAGEMOOR 2W    N/A         63  56  78  NE1     29.67S
#TOUCHET 2S     N/A         61  53  75  CALM    29.78S
#WEST PASCO     N/A         66  53  63  CALM    29.81R
$$

WAZ029-260510-
FOOTHILLS OF THE BLUES...WASHINGTON

CITY            SKY/WX      TMP DP  RH  WIND    PRES   REMARKS
WALLA WALLA AP  PTCLDY      68  48  49  SE6     29.85R
#DAYTON SCHOOL  N/A         61  45  56  N2      29.88R
#LOWDEN 2SE     N/A         63  55  75  E1      29.78S
#PLEASANT VIEW 1N/A         63  45  52  SW1     29.85R
#PRESCOTT       N/A         58  51  77  CALM    29.80R
#SUDBURY        N/A         62  N/A N/A CALM    N/A
#WHITMAN COLLEGEN/A         67  51  56  E3      29.86R
#WAITSBURG 8N   N/A         56  29  35  N1      29.71R
#WALLA WALLA U  N/A         70  51  51  CALM    29.80R
#WHITMAN MISSIONN/A         65  54  68  CALM    29.82R
$$

WAZ030-260510-
BLUE MOUNTAINS...WASHINGTON

CITY            SKY/WX      TMP DP  RH  WIND    PRES   REMARKS
#DIXIE 5SE      N/A         59  41  51  CALM    29.84S
$$

ORZ009-041-WAZ024-260510-
COLUMBIA RIVER GORGE

CITY            SKY/WX      TMP DP  RH  WIND    PRES   REMARKS
HOOD RIVER AP   CLEAR       61  46  58  W3      29.95R
THE DALLES AP   CLEAR       63  48  58  NW23G31 29.88S
#ARLINGTON AIRPON/A         63  48  58  W14     29.82S
#CELILO DOT     N/A         65  46  50  SW10    N/A
#MOSIER 1S      N/A         58  39  49  W6      29.91R
#MURDOCK        N/A         64  50  60  NW24G33 29.91R

$$

ORZ510-260510-
NORTH CENTRAL OREGON

CITY            SKY/WX      TMP DP  RH  WIND    PRES   REMARKS
#CHENOWITH 1W   N/A         55  46  72  NW16    N/A
#COW CYN RST AREN/A         59  N/A N/A W8      N/A
#DUFUR 9E       N/A         56  44  64  W16G24  29.91S
#GRASS VALLEY 1SN/A         59  41  51  NW18G26 29.88S
#KENT DOT       N/A         58  29  33  NW16    N/A
#MAUPIN SCHOOL  N/A         64  47  54  W5      29.91R
#MORO SCHOOL    N/A         58  50  75  W7      29.92R
#SHANIKO 5WSW   N/A         57  27  31  W7      N/A
#SHANIKO 4NW    N/A         54  37  52  W6      29.95R
#TYGH VALLEY 2NEN/A         63  46  54  E2      29.87R
#WAPANITIA AIRPON/A         57  44  62  W7      29.89R
#WASCO DOT      N/A         61  45  56  W8      N/A
#WASCO AIRPORT  N/A         58  45  62  W8      N/A
#WASCO 5NE      N/A         58  47  67  N10     29.85R
$$

ORZ511-260510-
CENTRAL OREGON

CITY            SKY/WX      TMP DP  RH  WIND    PRES   REMARKS
BEND AIRPORT    CLEAR       57  39  51  N5      29.97R
MADRAS AIRPORT  CLEAR       59  39  47  N13     29.95R
PRINEVILLE AP   CLEAR       57  37  47  N10     29.96R
REDMOND AIRPORT CLEAR       60  40  47  NW10    29.95R
#BEND 1SW       N/A         54  42  64  CALM    N/A
#BEND-AWBREY    N/A         58  41  53  CALM    29.88R
#BEND-KIM LN    N/A         59  41  51  NW2     29.94R
#CROOKED RVR RANN/A         61  42  50  CALM    29.88R
#CULVER         N/A         59  43  55  E1      29.91R
#LAKE BILLY CHINN/A         61  12  14  SE3     30.02R
#POWELL BUTTE   N/A         57  40  53  W1      29.60R
#PRINEVILLE 3N  N/A         57  40  53  N6      29.86R
#WARM SPRINGS   N/A         64  44  48  SW10    29.89R

$$


ORZ509-260510-
EAST SLOPES OF OREGON CASCADES

CITY            SKY/WX      TMP DP  RH  WIND    PRES   REMARKS
#BLUE BOX PASS  N/A         46  -6  11  NE1     N/A
#CAMP SHERMAN   N/A         56  41  57  CALM    29.90S
#LA PINE 4NW    N/A         53  36  52  CALM    29.93R
#SISTERS AIRPOR N/A         59  48  67  N1      30.17S
#SISTERS ODOT   N/A         60  N/A N/A S6      N/A
#SISTERS 1NW    N/A         60  41  49  N6      N/A
#SISTERS 3N     N/A         55  38  53  CALM    29.99R
#SUNRIVER       N/A         58  40  51  CALM    29.77R
#TUMALO 3W      N/A         57  41  55  N8      29.76R

$$

ORZ044-260510-
LOWER COLUMBIA BASIN...OREGON

CITY            SKY/WX      TMP DP  RH  WIND    PRES   REMARKS
HERMISTON       LGT RAIN    67  50  54  SW6     29.83R
#BOARDMAN SCHOOLN/A         70  52  53  W3      29.85R
#ECHO 8SW       N/A         67  51  56  SW2     29.85R
#IONE SCHOOL    N/A         65  44  46  SW3     29.85R
#IRRIGON 4NW    N/A         71  50  47  W3      N/A
#UMATILLA SCHOOLN/A         69  58  68  CALM    29.91R
#UMATILLA       N/A         71  50  47  S2      29.75R
$$

ORZ507-260510-
NORTHERN FOOTHILLS OF THE BLUES

CITY            SKY/WX      TMP DP  RH  WIND    PRES   REMARKS
PENDLETON AIRPT CLOUDY      65  47  52  NE5     29.85R
#ADAMS 3WNW     N/A         62  52  70  CALM    29.81S
#ATHENA         N/A         61  50  67  CALM    29.84R
#CAYUSE         N/A         62  47  58  E5      29.81R
#HELIX SCHOOL   N/A         65  48  54  CALM    29.81S
#HELIX 3N       N/A         62  48  60  N5      29.85R
#HOLDMAN 6E     N/A         65  46  50  CALM    29.63R
#M-F FERNDALE   N/A         64  49  58  CALM    29.83S
#M-F GROVE ELEM N/A         62  48  60  CALM    29.84R
#M-FREEWATER 5SEN/A         61  50  67  CALM    29.85S
#PENDLETON DNTN N/A         69  41  36  NE2     29.84S
#PDT AQUATIC CTRN/A         68  43  40  CALM    29.86S
#PENDLETON 5NE  N/A         62  50  65  CALM    29.82S
#PDT SUNRIDGE   N/A         66  48  52  CALM    29.85S
#PENDLETON 7NW  N/A         69  51  53  W6      29.52R
#PILOT ROCK     N/A         61  44  53  CALM    29.89R
#TUTUILLA       N/A         62  49  62  SE1     29.83S
#UMAPINE 2E     N/A         60  53  78  CALM    29.80S
#WESTON SCHOOL  N/A         58  45  62  CALM    29.83R

$$

ORZ508-260510-
SOUTHERN FOOTHILLS OF THE BLUES

CITY            SKY/WX      TMP DP  RH  WIND    PRES   REMARKS
#AJAX           N/A         60  37  42  SW9     29.85S
#CONDON 5W      N/A         54  37  52  NW9     29.90R
#FOSSIL SCHOOL  N/A         62  37  39  NW3     29.91R
#HEPPNER EOC    N/A         62  43  50  W2      29.78R
#HEPPNER 4NE    N/A         58  42  55  N7      29.85R
#LEXINGTON 2SE  N/A         62  44  52  CALM    29.87R
#RUGGS 5NE      N/A         57  39  51  W5      30.07F
#RUGGS 2SW      N/A         56  41  57  W5      29.87R

$$

ORZ502-503-260510-
BLUE MOUNTAINS

CITY            SKY/WX      TMP DP  RH  WIND    PRES   REMARKS
MEACHAM         CLEAR       50  41  71  CALM    29.94R
#BATTLE MTN DOT N/A         53  39  59  NW16    N/A
#HEPPNER 15SE   N/A         50  41  71  CALM    29.86R
#LADD CYN SMT   N/A         55  35  47  NW16    N/A
#LONG CREEK HS  N/A         56  43  62  CALM    29.89R
#N POWDER DOT   N/A         58  39  49  N10     N/A
#PIKES PEAK     N/A         58  42  55  SW2     27.99S
#TOLLGATE       N/A         47  41  79  CALM    29.90R
#TROY SCHOOL    N/A         61  52  72  CALM    29.67R
#UKIAH          N/A         56  41  57  N1      29.89R
#WESTON 4E      N/A         58  43  57  CALM    29.80R
$$

ORZ505-260510-
JOHN DAY BASIN

CITY            SKY/WX      TMP DP  RH  WIND    PRES   REMARKS
JOHN DAY        MOCLDY      60  37  42  CALM    29.95R
#JOHN DAY KJDY  N/A         63  48  58  CALM    29.88R
#DAYVILLE SCHOOLN/A         67  39  36  CALM    29.86S
#MITCHELL       N/A         64  43  46  NW2     30.06R
#MONUMENT HS    N/A         66  34  30  CALM    29.89R
#MT. VERNON 5SE N/A         58  38  47  CALM    29.89R
$$

ORZ506-260510-
OCHOCO AND JOHN DAY HIGHLANDS

CITY            SKY/WX      TMP DP  RH  WIND    PRES   REMARKS
#PAULINA SCHOOL N/A         62  35  36  N1      29.91R
#PINE MTN OBS   N/A         47  38  71  N8      N/A
#PRAIRIE CITY   N/A         54  40  59  CALM    29.90R
#SENECA         N/A         56  N/A N/A CALM    N/A
#SENECA 9NW     N/A         50  38  63  CALM    29.83R
$$

ORZ049-260510-
GRANDE RONDE VALLEY

CITY            SKY/WX      TMP DP  RH  WIND    PRES   REMARKS
LA GRANDE       CLEAR       57  37  47  W5      29.90R
#COVE           N/A         55  49  80  N2      29.92R
#COVE SCHOOL    N/A         54  47  77  CALM    29.90R
#ELGIN 3N       N/A         54  41  61  CALM    29.89R
#ELGIN 1E       N/A         60  42  51  CALM    N/A
#ISLAND CITY 4N N/A         57  51  80  CALM    30.00R
#LADD CYN DOT   N/A         58  40  51  SE8     N/A
#LA GRANDE ELEM N/A         57  41  55  CALM    29.94R
#UNION 1S       N/A         58  46  64  CALM    29.74R
$$

ORZ050-260510-
WALLOWA COUNTY

CITY            SKY/WX      TMP DP  RH  WIND    PRES   REMARKS
JOSEPH AIRPORT  N/A         52  43  71  CALM    29.95R
#ENTERPRISE HS  N/A         57  44  62  CALM    29.95R
#IMNAHA SCHOOL  N/A         65  49  56  CALM    29.86R
#IMNAHA 10S     N/A         61  43  51  SW1     29.88R
#JOSEPH 3N      N/A         53  39  59  CALM    29.97R
#JOSEPH 3W      N/A         47  41  79  SW2     29.82R
#LOSTINE        N/A         55  43  64  CALM    29.64R
#MT HOWARD 8000 N/A         38  35  89  NW2     30.05R
#PROMISE 1S     N/A         52  45  77  CALM    29.94R
#SHEEP RDG 7000 N/A         43  37  79  CALM    29.85R
#WALLOWA SCHOOL N/A         58  44  60  CALM    30.74R



$$



USA.gov is the U.S. government's official web portal to all federal, state and local government web resources and services.